Regional Weather Roundup
Issued by NWS

Home | Current Version | Previous Version | Text Only | Print | Product List | Glossary Off
Versions: 1 2 3 4 5 6 7 8 9 10 11 12 13 14 15 16 17 18 19 20 21 22 23 24 25 26 27 28 29 30 31 32 33 34 35 36 37 38 39 40 41 42 43 44 45 46 47 48 49 50

000
ASUS43 KMPX 261301
RWRMN
WEATHER ROUNDUP FOR MINNESOTA
NATIONAL WEATHER SERVICE TWIN CITIES/CHANHASSEN MN
800 AM CDT TUE MAY 26 2015


NOTE: "FAIR" INDICATES FEW OR NO CLOUDS BELOW 12,000 FEET WITH NO
SIGNIFICANT WEATHER AND/OR OBSTRUCTIONS TO VISIBILITY. N/A MEANS
CURRENT SKY AND/OR WEATHER CONDITIONS ARE NOT AVAILABLE.

MNZ060>063-068>070-261400-
   Twin Cities Metro

CITY           SKY/WX    TMP DP  RH WIND       PRES   REMARKS
TWIN CITIES    CLOUDY    57  56  96 NW6       29.82R FOG
ST PAUL        CLOUDY    59  57  93 NW6       29.82S
CRYSTAL        CLOUDY    57  56  96 NE6       29.81R FOG
BLAINE         CLOUDY    57  57 100 NE6       29.82S FOG
LAKEVILLE      CLOUDY    57  55  94 CALM      29.81F
EDEN PRAIRIE   FOG       57  56  96 NE5       29.81S VSB 1/2
SOUTH ST PAUL  CLOUDY    60  57  90 CALM      29.81S
LAKE ELMO      CLOUDY    59  57  94 NE3       29.83S FOG
$$
MNZ001>005-007-008-013>017-022>024-027-028-261400-
   Northwest Minnesota

CITY           SKY/WX    TMP DP  RH WIND       PRES   REMARKS
BEMIDJI        PTSUNNY   50  50 100 CALM      29.88S
HALLOCK        SUNNY     61  54  77 S15       29.80S
ROSEAU         SUNNY     61  52  72 SW15      29.83R
WARROAD        SUNNY     59  52  77 SW9G16    29.83S
THIEF RVR FALL SUNNY     57  50  77 S9        29.85F
CROOKSTON      SUNNY     61  50  67 S9        29.84F
FOSSTON        MOSUNNY   54  52  94 CALM      29.87S
DETROIT LAKES  PTSUNNY   52  50  93 CALM      29.89R
MOORHEAD       MOSUNNY   54  50  87 SE5       29.87S
PARK RAPIDS    CLOUDY    55  50  83 N3        29.87S
MAHNOMEN       FAIR      51  49  94 CALM      29.87S
$$
MNZ006-009>011-018-025>026-261400-
   North Central Minnesota

CITY           SKY/WX    TMP DP  RH WIND       PRES   REMARKS
BAUDETTE       SUNNY     56  50  80 SW8       29.85S
FLAG ISLAND    SUNNY     55  52  88 S12       29.81S
INTL FALLS     MOSUNNY   54  52  93 CALM      29.87S
WASKISH        SUNNY     55  54  94 CALM      29.87S
BIG FORK       PTSUNNY   54  52  94 CALM      29.89R
LONGVILLE      CLOUDY    54  52  94 N5        29.87S
GRAND RAPIDS   PTSUNNY   54  50  87 N3        29.88F
CRANE LAKE     PTSUNNY   54  54 100 CALM      29.90R
COOK           PTSUNNY   55  54  94 CALM      29.88S
WALKER         FAIR      50  49  99 CALM      29.88S
$$
MNZ012-019>021-037-261400-
   Northeast Minnesota

CITY           SKY/WX    TMP DP  RH WIND       PRES   REMARKS
DULUTH         CLOUDY    54  51  90 NE8       29.85F
ELY            PTSUNNY   55  52  88 NE7       29.87F
HIBBING        PTSUNNY   56  51  84 NE3       29.87S
EVELETH        PTSUNNY   57  54  88 CALM      29.88S
DULUTH HARBOR  CLOUDY    50  48  93 CALM      29.87R
TWO HARBORS    PTSUNNY   61  55  82 NE3       29.83F
GRAND MARAIS     N/A     53  51  93 CALM      29.84S
G MARAIS ARPRT PTSUNNY   55  48  76 N9        29.87R
$$
MNZ029>031-032-039>041-046>048-054>057-064-261400-
   West Central Minnesota

CITY           SKY/WX    TMP DP  RH WIND       PRES   REMARKS
FERGUS FALLS   CLOUDY    55  54  94 N5        29.87F
WHEATON        CLOUDY    52  50  93 CALM      29.88F
MORRIS         CLOUDY    55  52  88 N12       29.84S
ALEXANDRIA     CLOUDY    54  51  90 N12       29.86F
ELBOW LAKE     FAIR      55  51  89 N6        29.86S
WADENA         CLOUDY    52  52 100 N5        29.87F
GLENWOOD       CLOUDY    54  52  94 N13       29.85S
APPLETON       CLOUDY    55  52  88 N9        29.83F
BENSON         CLOUDY    57  50  77 NE9       29.83F
ORTONVILLE     CLOUDY    55  50  82 N9        29.85S
MADISON        CLOUDY    54  52  94 N7        29.85S
WILLMAR        CLOUDY    57  54  88 N12       29.83F
$$
MNZ033>034-036-042>043-049>051-058-059-261400-
   Central Minnesota

CITY           SKY/WX    TMP DP  RH WIND       PRES   REMARKS
ST CLOUD       CLOUDY    54  51  90 N12       29.83S
SAUK CENTRE    CLOUDY    55  51  87 N8        29.85S
PAYNESVILLE    CLOUDY    53  51  93 N10       29.83S
AITKIN         CLOUDY    54  48  82 N8        29.84S
PINE RIVER     CLOUDY    54  54 100 N3        29.90F
BRAINERD       CLOUDY    55  52  89 N8        29.86S
STAPLES        CLOUDY    54  52  94 N3        29.87S
LONG PRAIRIE   CLOUDY    54  50  87 N10       29.86R
LITTLE FALLS   CLOUDY    54  50  87 N3        29.84F
BUFFALO        CLOUDY    55  53  92 N6        29.83S FOG
MAPLE LAKE     CLOUDY    55  55  97 N8        29.84R
$$
MNZ037-044-045-052-053-261400-
   East Central Minnesota

CITY           SKY/WX    TMP DP  RH WIND       PRES   REMARKS
PRINCETON      CLOUDY    55  54  94 N8        29.83S
MORA           CLOUDY    54  52  94 N3        29.85S
CAMBRIDGE      CLOUDY    55  46  71 N5        29.81S HAZE
RUSH CITY      CLOUDY    52  51  97 N5        29.84R
MOOSE LAKE     CLOUDY    54  54 100 NE5       29.84R
HINCKLEY       CLOUDY    54  52  94 N9        29.84R
CLOQUET        CLOUDY    54  52  94 NE3       29.86S
MCGREGOR       CLOUDY    54  52  94 N6        29.86F
$$
MNZ071>073-080-081-089-090-097-098-261400-
   Southwest Minnesota

CITY           SKY/WX    TMP DP  RH WIND       PRES   REMARKS
MONTEVIDEO     CLOUDY    57  54  88 NE9       29.83F
GRANITE FALLS  CLOUDY    56  53  89 N9        29.84S
CANBY          CLOUDY    54  51  90 N7        29.86R
MARSHALL       CLOUDY    54  48  82 N10       29.83S
REDWOOD FALLS  CLOUDY    57  54  89 N6        29.82R
OLIVIA         CLOUDY    54  52  94 NE9       29.81F
WINDOM         CLOUDY    55  54  94 CALM      29.84R
WORTHINGTON    CLOUDY    55  52  88 NE10      29.83F
JACKSON        RAIN      55  54  94 N8        29.83S
TRACY          CLOUDY    56  54  95 N8        29.84S
SLAYTON        RAIN      53  53 100 N10       29.84R
$$
MNZ065>067-074>077-082>085-091>093-261400-
   South Central Minnesota

CITY           SKY/WX    TMP DP  RH WIND       PRES   REMARKS
MANKATO        CLOUDY    57  55  94 NW5       29.82S
NEW ULM        CLOUDY    55  55 100 CALM      29.82S
ST JAMES       CLOUDY    57  57 100 W8        29.84R
FAIRMONT       CLOUDY    57  52  82 N7        29.81S
GLENCOE        CLOUDY    57  57 100 N6        29.82R FOG
FARIBAULT      CLOUDY    59  57  94 CALM      29.81F FOG
OWATONNA       CLOUDY    61  57  88 N3        29.80F FOG
WASECA         CLOUDY    55  55 100 N5        29.81F FOG
ALBERT LEA     CLOUDY    63  55  77 SW7       29.79F
$$
MNZ078>079-086>088-094>096-261400-
   Southeast Minnesota

CITY           SKY/WX    TMP DP  RH WIND       PRES   REMARKS
ROCHESTER      CLOUDY    61  56  83 S7        29.82F
RED WING       CLOUDY    61  59  94 CALM      29.80F FOG
STANTON        CLOUDY    59  57  94 CALM      29.80S FOG
DODGE CENTER   CLOUDY    63  57  82 CALM      29.80F
AUSTIN         CLOUDY    61  57  88 S7        29.81S
PRESTON        CLOUDY    59  56  89 SW6       29.82F
$$
ABBREVIATIONS USED IN REMARKS
   TC - TEMPERATURES IN CELSIUS
  WCI - WIND CHILL INDEX
   HX - HEAT INDEX
  VSB - VISIBILITY
$$



USA.gov is the U.S. government's official web portal to all federal, state and local government web resources and services.